Time,TemperatureF,DewpointF,PressureIn,WindDirection,WindDirectionDegrees,WindSpeedMPH,WindSpeedGustMPH,Humidity,HourlyPrecipIn,Conditions,Clouds,dailyrainin,SoftwareType,DateUTC
2013-09-25 00:01:00,68.7,65.3,29.93,North,0,0.0,0.0,89,-99.99,,,-99.99,WeatherSnoop3.0,2013-09-25 04:01:00,
2013-09-25 00:02:00,68.7,65.3,29.93,North,0,0.0,0.0,89,-99.99,,,-99.99,WeatherSnoop3.0,2013-09-25 04:02:00,
2013-09-25 00:04:00,68.7,65.3,29.92,North,0,0.0,0.0,89,-99.99,,,-99.99,WeatherSnoop3.0,2013-09-25 04:04:00,
2013-09-25 00:06:00,68.7,65.3,29.92,North,0,0.0,0.0,89,-99.99,,,-99.99,WeatherSnoop3.0,2013-09-25 04:06:00,
2013-09-25 00:11:00,68.7,65.3,29.92,North,0,0.0,0.0,89,-99.99,,,-99.99,WeatherSnoop3.0,2013-09-25 04:11:00,
2013-09-25 00:16:00,68.5,65.2,29.92,North,0,0.0,0.0,89,-99.99,,,-99.99,WeatherSnoop3.0,2013-09-25 04:16:00,
2013-09-25 00:19:00,68.5,65.2,29.91,North,0,0.0,0.0,89,-99.99,,,-99.99,WeatherSnoop3.0,2013-09-25 04:19:00,
2013-09-25 00:24:00,68.4,65.0,29.90,North,0,0.0,0.0,89,-99.99,,,-99.99,WeatherSnoop3.0,2013-09-25 04:24:00,
2013-09-25 00:29:00,68.2,64.8,29.90,North,0,0.0,0.0,89,-99.99,,,-99.99,WeatherSnoop3.0,2013-09-25 04:29:00,
2013-09-25 00:34:00,68.2,64.8,29.90,North,0,0.0,0.0,89,-99.99,,,-99.99,WeatherSnoop3.0,2013-09-25 04:34:00,
2013-09-25 00:39:00,68.2,65.1,29.89,North,0,0.0,0.0,90,-99.99,,,-99.99,WeatherSnoop3.0,2013-09-25 04:39:00,
2013-09-25 00:44:00,68.2,65.1,29.89,North,0,0.0,0.0,90,-99.99,,,-99.99,WeatherSnoop3.0,2013-09-25 04:44:00,
2013-09-25 00:49:00,68.2,65.1,29.88,North,0,0.0,0.0,90,-99.99,,,-99.99,WeatherSnoop3.0,2013-09-25 04:49:00,
2013-09-25 00:54:00,68.2,65.4,29.88,North,0,0.0,0.0,91,-99.99,,,-99.99,WeatherSnoop3.0,2013-09-25 04:54:00,
2013-09-25 00:59:00,68.2,65.4,29.88,North,0,0.0,0.0,91,-99.99,,,-99.99,WeatherSnoop3.0,2013-09-25 04:59:00,
2013-09-25 01:04:00,68.2,65.4,29.88,North,0,0.0,0.0,91,-99.99,,,-99.99,WeatherSnoop3.0,2013-09-25 05:04:00,
2013-09-25 01:09:00,68.2,65.8,29.88,North,0,0.0,0.0,92,-99.99,,,-99.99,WeatherSnoop3.0,2013-09-25 05:09:00,
2013-09-25 01:14:00,68.4,65.9,29.87,North,0,0.0,0.0,92,-99.99,,,-99.99,WeatherSnoop3.0,2013-09-25 05:14:00,
2013-09-25 01:19:00,68.4,65.9,29.87,North,0,0.0,0.0,92,-99.99,,,-99.99,WeatherSnoop3.0,2013-09-25 05:19:00,
2013-09-25 01:24:00,68.4,65.9,29.87,North,0,0.0,0.0,92,-99.99,,,-99.99,WeatherSnoop3.0,2013-09-25 05:24:00,
2013-09-25 01:29:00,68.5,66.1,29.86,North,0,0.0,0.0,92,-99.99,,,-99.99,WeatherSnoop3.0,2013-09-25 05:29:00,
2013-09-25 01:34:00,68.5,66.1,29.86,North,0,0.0,0.0,92,-99.99,,,-99.99,WeatherSnoop3.0,2013-09-25 05:34:00,
2013-09-25 01:39:00,68.7,66.3,29.85,North,0,0.0,0.0,92,-99.99,,,-99.99,WeatherSnoop3.0,2013-09-25 05:39:00,
2013-09-25 01:44:00,68.7,66.3,29.85,North,0,0.0,0.0,92,-99.99,,,-99.99,WeatherSnoop3.0,2013-09-25 05:44:00,
2013-09-25 01:49:00,68.9,66.5,29.85,North,0,0.0,0.0,92,-99.99,,,-99.99,WeatherSnoop3.0,2013-09-25 05:49:00,
2013-09-25 01:54:00,69.1,66.7,29.85,East,90,0.0,0.0,92,-99.99,,,-99.99,WeatherSnoop3.0,2013-09-25 05:54:00,
2013-09-25 01:59:00,69.1,66.3,29.85,North,0,0.0,0.0,91,-99.99,,,-99.99,WeatherSnoop3.0,2013-09-25 05:59:00,
2013-09-25 02:04:00,69.1,66.3,29.85,North,0,0.0,0.0,91,-99.99,,,-99.99,WeatherSnoop3.0,2013-09-25 06:04:00,
2013-09-25 02:09:00,69.1,66.3,29.85,North,0,0.0,0.0,91,-99.99,,,-99.99,WeatherSnoop3.0,2013-09-25 06:09:00,
2013-09-25 02:14:00,69.6,66.6,29.84,North,0,0.0,0.0,90,-99.99,,,-99.99,WeatherSnoop3.0,2013-09-25 06:14:00,
2013-09-25 02:19:00,69.6,66.6,29.84,North,0,0.0,0.0,90,-99.99,,,-99.99,WeatherSnoop3.0,2013-09-25 06:19:00,
2013-09-25 02:24:00,69.8,66.4,29.84,NW,315,0.0,0.0,89,-99.99,,,-99.99,WeatherSnoop3.0,2013-09-25 06:24:00,
2013-09-25 02:29:00,69.8,66.1,29.84,NW,315,0.0,0.0,88,-99.99,,,-99.99,WeatherSnoop3.0,2013-09-25 06:29:00,
2013-09-25 02:34:00,69.8,66.1,29.84,North,0,0.0,0.0,88,-99.99,,,-99.99,WeatherSnoop3.0,2013-09-25 06:34:00,
2013-09-25 02:39:00,70.0,66.3,29.83,North,0,0.0,0.0,88,-99.99,,,-99.99,WeatherSnoop3.0,2013-09-25 06:39:00,
2013-09-25 02:44:00,69.8,66.1,29.83,North,0,0.0,0.0,88,-99.99,,,-99.99,WeatherSnoop3.0,2013-09-25 06:44:00,
2013-09-25 02:49:00,69.8,66.1,29.83,North,0,0.0,0.0,88,-99.99,,,-99.99,WeatherSnoop3.0,2013-09-25 06:49:00,
2013-09-25 02:54:00,69.8,66.1,29.82,North,0,0.0,0.0,88,-99.99,,,-99.99,WeatherSnoop3.0,2013-09-25 06:54:00,
2013-09-25 02:59:00,69.8,66.1,29.82,North,0,0.0,0.0,88,-99.99,,,-99.99,WeatherSnoop3.0,2013-09-25 06:59:00,
2013-09-25 03:04:00,69.8,66.1,29.82,North,0,0.0,0.0,88,-99.99,,,-99.99,WeatherSnoop3.0,2013-09-25 07:04:00,
2013-09-25 03:09:00,69.6,66.2,29.82,NE,45,0.0,0.0,89,-99.99,,,-99.99,WeatherSnoop3.0,2013-09-25 07:09:00,
2013-09-25 03:14:00,69.8,65.7,29.81,North,0,0.0,0.0,87,-99.99,,,-99.99,WeatherSnoop3.0,2013-09-25 07:14:00,
2013-09-25 03:19:00,69.8,65.7,29.81,North,0,0.0,0.0,87,-99.99,,,-99.99,WeatherSnoop3.0,2013-09-25 07:19:00,
2013-09-25 03:24:00,69.8,65.7,29.81,East,90,0.0,0.0,87,-99.99,,,-99.99,WeatherSnoop3.0,2013-09-25 07:24:00,
2013-09-25 03:29:00,69.6,65.9,29.80,NE,45,0.0,0.0,88,-99.99,,,-99.99,WeatherSnoop3.0,2013-09-25 07:29:00,
2013-09-25 03:34:00,69.3,65.5,29.80,North,0,0.0,0.0,88,-99.99,,,-99.99,WeatherSnoop3.0,2013-09-25 07:34:00,
2013-09-25 03:39:00,69.3,65.5,29.80,North,0,0.0,0.0,88,-99.99,,,-99.99,WeatherSnoop3.0,2013-09-25 07:39:00,
2013-09-25 03:44:00,69.1,65.4,29.80,South,180,0.0,0.0,88,-99.99,,,-99.99,WeatherSnoop3.0,2013-09-25 07:44:00,
2013-09-25 03:49:00,68.9,65.2,29.80,East,90,0.0,0.0,88,-99.99,,,-99.99,WeatherSnoop3.0,2013-09-25 07:49:00,
2013-09-25 03:54:00,68.9,65.2,29.82,South,180,0.0,0.0,88,-99.99,,,-99.99,WeatherSnoop3.0,2013-09-25 07:54:00,
2013-09-25 03:59:00,68.9,65.2,29.82,East,90,0.0,0.0,88,-99.99,,,-99.99,WeatherSnoop3.0,2013-09-25 07:59:00,
2013-09-25 04:04:00,68.9,65.2,29.83,East,90,0.0,0.0,88,-99.99,,,-99.99,WeatherSnoop3.0,2013-09-25 08:04:00,
2013-09-25 04:09:00,68.9,65.2,29.83,North,0,0.0,0.0,88,-99.99,,,-99.99,WeatherSnoop3.0,2013-09-25 08:09:00,
2013-09-25 04:14:00,68.7,64.7,29.83,North,0,0.0,0.0,87,-99.99,,,-99.99,WeatherSnoop3.0,2013-09-25 08:14:00,
2013-09-25 04:19:00,68.9,64.9,29.83,South,180,0.0,0.0,87,-99.99,,,-99.99,WeatherSnoop3.0,2013-09-25 08:19:00,
2013-09-25 04:24:00,68.9,64.9,29.82,East,90,0.0,0.0,87,-99.99,,,-99.99,WeatherSnoop3.0,2013-09-25 08:24:00,
2013-09-25 04:29:00,68.7,64.7,29.82,SE,135,1.6,3.1,87,-99.99,,,-99.99,WeatherSnoop3.0,2013-09-25 08:29:00,
2013-09-25 04:34:00,68.9,64.5,29.81,SE,135,0.0,0.0,86,-99.99,,,-99.99,WeatherSnoop3.0,2013-09-25 08:34:00,
2013-09-25 04:39:00,68.7,64.4,29.80,East,90,0.0,0.0,86,-99.99,,,-99.99,WeatherSnoop3.0,2013-09-25 08:39:00,
2013-09-25 04:44:00,68.7,64.4,29.80,East,90,0.0,0.0,86,-99.99,,,-99.99,WeatherSnoop3.0,2013-09-25 08:44:00,
2013-09-25 04:49:00,68.9,64.2,29.80,NE,45,0.0,1.6,85,-99.99,,,-99.99,WeatherSnoop3.0,2013-09-25 08:49:00,
2013-09-25 04:54:00,68.9,64.2,29.80,East,90,0.0,1.6,85,-99.99,,,-99.99,WeatherSnoop3.0,2013-09-25 08:54:00,
2013-09-25 04:59:00,69.1,64.4,29.79,East,90,0.0,0.0,85,-99.99,,,-99.99,WeatherSnoop3.0,2013-09-25 08:59:00,
2013-09-25 05:04:00,68.9,63.9,29.79,East,90,0.0,0.0,84,-99.99,,,-99.99,WeatherSnoop3.0,2013-09-25 09:04:00,
2013-09-25 05:09:00,68.9,63.9,29.79,South,180,0.0,0.0,84,-99.99,,,-99.99,WeatherSnoop3.0,2013-09-25 09:09:00,
2013-09-25 05:14:00,68.9,63.9,29.79,South,180,0.0,2.2,84,-99.99,,,-99.99,WeatherSnoop3.0,2013-09-25 09:14:00,
2013-09-25 05:19:00,69.3,64.2,29.79,SE,135,0.0,0.0,84,-99.99,,,-99.99,WeatherSnoop3.0,2013-09-25 09:19:00,
2013-09-25 05:24:00,69.1,64.0,29.78,SE,135,0.0,0.7,84,-99.99,,,-99.99,WeatherSnoop3.0,2013-09-25 09:24:00,
2013-09-25 05:29:00,69.3,64.2,29.78,SE,135,0.0,0.0,84,-99.99,,,-99.99,WeatherSnoop3.0,2013-09-25 09:29:00,
2013-09-25 05:34:00,69.3,64.2,29.77,SE,135,0.0,0.0,84,-99.99,,,-99.99,WeatherSnoop3.0,2013-09-25 09:34:00,
2013-09-25 05:39:00,69.3,64.2,29.77,NW,315,0.0,0.0,84,-99.99,,,-99.99,WeatherSnoop3.0,2013-09-25 09:39:00,
2013-09-25 05:44:00,69.3,64.2,29.77,NW,315,0.0,0.0,84,-99.99,,,-99.99,WeatherSnoop3.0,2013-09-25 09:44:00,
2013-09-25 05:49:00,69.3,64.2,29.77,NW,315,0.0,0.0,84,-99.99,,,-99.99,WeatherSnoop3.0,2013-09-25 09:49:00,
2013-09-25 05:54:00,69.1,64.0,29.77,NW,315,0.0,0.0,84,-99.99,,,-99.99,WeatherSnoop3.0,2013-09-25 09:54:00,
2013-09-25 05:59:00,69.3,64.2,29.78,NW,315,0.0,0.0,84,-99.99,,,-99.99,WeatherSnoop3.0,2013-09-25 09:59:00,
2013-09-25 06:04:00,69.4,64.4,29.78,NW,315,0.0,0.0,84,-99.99,,,-99.99,WeatherSnoop3.0,2013-09-25 10:04:00,
2013-09-25 06:09:00,69.3,64.2,29.77,NW,315,0.0,0.0,84,-99.99,,,-99.99,WeatherSnoop3.0,2013-09-25 10:09:00,
2013-09-25 06:14:00,69.1,64.0,29.77,NW,315,0.0,0.0,84,-99.99,,,-99.99,WeatherSnoop3.0,2013-09-25 10:14:00,
2013-09-25 06:19:00,69.1,64.0,29.77,NW,315,0.0,0.0,84,-99.99,,,-99.99,WeatherSnoop3.0,2013-09-25 10:19:00,
2013-09-25 06:24:00,68.9,63.9,29.78,NW,315,0.0,0.0,84,-99.99,,,-99.99,WeatherSnoop3.0,2013-09-25 10:24:00,
2013-09-25 06:29:00,68.7,63.7,29.78,NW,315,0.0,0.0,84,-99.99,,,-99.99,WeatherSnoop3.0,2013-09-25 10:29:00,
2013-09-25 06:34:00,68.5,63.8,29.79,NW,315,0.0,0.0,85,-99.99,,,-99.99,WeatherSnoop3.0,2013-09-25 10:34:00,
2013-09-25 06:39:00,68.4,63.7,29.79,NW,315,0.0,0.0,85,-99.99,,,-99.99,WeatherSnoop3.0,2013-09-25 10:39:00,
2013-09-25 06:44:00,68.4,63.7,29.80,NW,315,0.0,0.0,85,-99.99,,,-99.99,WeatherSnoop3.0,2013-09-25 10:44:00,
2013-09-25 06:49:00,68.2,63.5,29.80,NW,315,0.0,0.0,85,-99.99,,,-99.99,WeatherSnoop3.0,2013-09-25 10:49:00,
2013-09-25 06:54:00,68.0,63.6,29.80,NW,315,0.0,0.0,86,-99.99,,,-99.99,WeatherSnoop3.0,2013-09-25 10:54:00,
2013-09-25 06:59:00,68.0,63.6,29.80,NW,315,0.0,0.0,86,-99.99,,,-99.99,WeatherSnoop3.0,2013-09-25 10:59:00,
2013-09-25 07:04:00,67.8,63.8,29.79,NW,315,0.0,0.0,87,-99.99,,,-99.99,WeatherSnoop3.0,2013-09-25 11:04:00,
2013-09-25 07:09:00,67.8,64.1,29.78,NW,315,0.0,0.0,88,-99.99,,,-99.99,WeatherSnoop3.0,2013-09-25 11:09:00,
2013-09-25 07:14:00,67.8,64.1,29.78,NW,315,0.0,0.0,88,-99.99,,,-99.99,WeatherSnoop3.0,2013-09-25 11:14:00,
2013-09-25 07:19:00,68.0,64.0,29.79,NW,315,0.0,0.0,87,-99.99,,,-99.99,WeatherSnoop3.0,2013-09-25 11:19:00,
2013-09-25 07:24:00,67.8,64.1,29.79,NW,315,0.0,0.0,88,-99.99,,,-99.99,WeatherSnoop3.0,2013-09-25 11:24:00,
2013-09-25 07:29:00,67.8,63.8,29.80,NW,315,0.0,0.0,87,-99.99,,,-99.99,WeatherSnoop3.0,2013-09-25 11:29:00,
2013-09-25 07:34:00,68.0,63.6,29.80,NW,315,0.0,0.0,86,-99.99,,,-99.99,WeatherSnoop3.0,2013-09-25 11:34:00,
2013-09-25 07:39:00,68.2,63.8,29.81,NW,315,0.0,0.0,86,-99.99,,,-99.99,WeatherSnoop3.0,2013-09-25 11:39:00,
2013-09-25 07:44:00,68.2,63.8,29.81,NW,315,0.0,0.0,86,-99.99,,,-99.99,WeatherSnoop3.0,2013-09-25 11:44:00,
2013-09-25 07:49:00,68.5,64.2,29.81,NW,315,0.0,0.0,86,-99.99,,,-99.99,WeatherSnoop3.0,2013-09-25 11:49:00,
2013-09-25 07:54:00,68.9,64.2,29.81,NW,315,0.0,0.0,85,-99.99,,,-99.99,WeatherSnoop3.0,2013-09-25 11:54:00,
2013-09-25 07:59:00,68.9,64.2,29.80,NW,315,0.0,0.0,85,-99.99,,,-99.99,WeatherSnoop3.0,2013-09-25 11:59:00,
2013-09-25 08:04:00,68.9,64.2,29.80,NW,315,0.0,0.0,85,-99.99,,,-99.99,WeatherSnoop3.0,2013-09-25 12:04:00,
2013-09-25 08:09:00,68.9,64.2,29.80,NW,315,0.0,0.0,85,-99.99,,,-99.99,WeatherSnoop3.0,2013-09-25 12:09:00,
2013-09-25 08:14:00,69.1,64.4,29.79,NW,315,0.0,0.0,85,-99.99,,,-99.99,WeatherSnoop3.0,2013-09-25 12:14:00,
2013-09-25 08:19:00,69.3,64.6,29.79,West,270,0.0,0.0,85,-99.99,,,-99.99,WeatherSnoop3.0,2013-09-25 12:19:00,
2013-09-25 08:24:00,69.6,64.9,29.78,West,270,0.0,2.2,85,-99.99,,,-99.99,WeatherSnoop3.0,2013-09-25 12:24:00,
2013-09-25 08:29:00,70.3,65.3,29.77,NW,315,0.0,0.0,84,-99.99,,,-99.99,WeatherSnoop3.0,2013-09-25 12:29:00,
2013-09-25 08:33:00,71.1,65.6,29.77,NW,315,0.0,0.7,83,-99.99,,,-99.99,WeatherSnoop3.0,2013-09-25 12:33:00,
2013-09-25 08:38:00,71.4,65.6,29.77,NW,315,0.0,0.0,82,-99.99,,,-99.99,WeatherSnoop3.0,2013-09-25 12:38:00,
2013-09-25 08:43:00,71.4,65.6,29.77,NW,315,0.0,0.0,82,-99.99,,,-99.99,WeatherSnoop3.0,2013-09-25 12:43:00,
2013-09-25 08:48:00,71.4,65.6,29.77,NW,315,0.0,0.7,82,-99.99,,,-99.99,WeatherSnoop3.0,2013-09-25 12:48:00,
2013-09-25 08:53:00,71.4,65.6,29.76,NW,315,0.0,0.0,82,-99.99,,,-99.99,WeatherSnoop3.0,2013-09-25 12:53:00,
2013-09-25 08:58:00,72.0,65.8,29.75,NW,315,0.0,0.7,81,-99.99,,,-99.99,WeatherSnoop3.0,2013-09-25 12:58:00,
2013-09-25 09:03:00,72.3,66.2,29.75,West,270,0.0,0.0,81,-99.99,,,-99.99,WeatherSnoop3.0,2013-09-25 13:03:00,
2013-09-25 09:08:00,72.7,66.5,29.75,West,270,0.0,0.0,81,-99.99,,,-99.99,WeatherSnoop3.0,2013-09-25 13:08:00,
2013-09-25 09:13:00,73.0,66.5,29.75,West,270,0.0,0.0,80,-99.99,,,-99.99,WeatherSnoop3.0,2013-09-25 13:13:00,
2013-09-25 09:18:00,73.4,66.8,29.74,West,270,0.0,0.0,80,-99.99,,,-99.99,WeatherSnoop3.0,2013-09-25 13:18:00,
2013-09-25 09:23:00,73.4,66.5,29.74,West,270,0.7,3.1,79,-99.99,,,-99.99,WeatherSnoop3.0,2013-09-25 13:23:00,
2013-09-25 09:28:00,73.2,66.3,29.74,North,0,0.0,0.0,79,-99.99,,,-99.99,WeatherSnoop3.0,2013-09-25 13:28:00,
2013-09-25 09:33:00,73.4,66.8,29.74,NW,315,0.0,0.0,80,-99.99,,,-99.99,WeatherSnoop3.0,2013-09-25 13:33:00,
2013-09-25 09:38:00,73.4,66.5,29.73,West,270,1.6,6.0,79,-99.99,,,-99.99,WeatherSnoop3.0,2013-09-25 13:38:00,
2013-09-25 09:43:00,74.1,67.5,29.73,West,270,0.0,0.0,80,-99.99,,,-99.99,WeatherSnoop3.0,2013-09-25 13:43:00,
2013-09-25 09:48:00,74.3,67.4,29.73,NW,315,0.0,0.0,79,-99.99,,,-99.99,WeatherSnoop3.0,2013-09-25 13:48:00,
2013-09-25 09:53:00,74.5,67.5,29.73,North,0,0.0,0.0,79,-99.99,,,-99.99,WeatherSnoop3.0,2013-09-25 13:53:00,
2013-09-25 09:58:00,74.5,67.2,29.75,NW,315,0.0,1.6,78,-99.99,,,-99.99,WeatherSnoop3.0,2013-09-25 13:58:00,
2013-09-25 10:03:00,74.3,67.0,29.76,North,0,0.0,0.0,78,-99.99,,,-99.99,WeatherSnoop3.0,2013-09-25 14:03:00,
2013-09-25 10:08:00,74.7,67.3,29.77,East,90,0.0,0.0,78,-99.99,,,-99.99,WeatherSnoop3.0,2013-09-25 14:08:00,
2013-09-25 10:13:00,75.4,67.7,29.77,North,0,0.0,0.0,77,-99.99,,,-99.99,WeatherSnoop3.0,2013-09-25 14:13:00,
2013-09-25 10:18:00,76.1,68.4,29.77,East,90,0.0,0.7,77,-99.99,,,-99.99,WeatherSnoop3.0,2013-09-25 14:18:00,
2013-09-25 10:23:00,75.4,66.9,29.77,SE,135,0.7,3.1,75,-99.99,,,-99.99,WeatherSnoop3.0,2013-09-25 14:23:00,
2013-09-25 10:28:00,76.1,67.6,29.77,North,0,0.0,0.0,75,-99.99,,,-99.99,WeatherSnoop3.0,2013-09-25 14:28:00,
2013-09-25 10:33:00,76.1,67.6,29.77,South,180,0.0,0.0,75,-99.99,,,-99.99,WeatherSnoop3.0,2013-09-25 14:33:00,
2013-09-25 10:38:00,75.9,67.0,29.76,SW,225,0.0,0.0,74,-99.99,,,-99.99,WeatherSnoop3.0,2013-09-25 14:38:00,
2013-09-25 10:43:00,76.1,67.2,29.75,North,0,0.0,0.0,74,-99.99,,,-99.99,WeatherSnoop3.0,2013-09-25 14:43:00,
2013-09-25 10:48:00,76.3,67.4,29.75,South,180,0.7,3.8,74,-99.99,,,-99.99,WeatherSnoop3.0,2013-09-25 14:48:00,
2013-09-25 10:53:00,76.6,67.7,29.74,South,180,0.0,0.0,74,-99.99,,,-99.99,WeatherSnoop3.0,2013-09-25 14:53:00,
2013-09-25 10:58:00,76.8,67.9,29.74,North,0,0.0,0.7,74,-99.99,,,-99.99,WeatherSnoop3.0,2013-09-25 14:58:00,
2013-09-25 11:03:00,76.5,66.7,29.73,North,0,0.0,0.0,72,-99.99,,,-99.99,WeatherSnoop3.0,2013-09-25 15:03:00,
2013-09-25 11:08:00,76.8,67.5,29.73,NW,315,0.0,0.7,73,-99.99,,,-99.99,WeatherSnoop3.0,2013-09-25 15:08:00,
2013-09-25 11:13:00,76.5,67.1,29.72,North,0,0.0,0.7,73,-99.99,,,-99.99,WeatherSnoop3.0,2013-09-25 15:13:00,
2013-09-25 11:18:00,76.6,67.7,29.72,East,90,0.0,0.7,74,-99.99,,,-99.99,WeatherSnoop3.0,2013-09-25 15:18:00,
2013-09-25 11:23:00,76.3,67.4,29.71,SE,135,0.7,2.2,74,-99.99,,,-99.99,WeatherSnoop3.0,2013-09-25 15:23:00,
2013-09-25 11:29:00,76.3,67.8,0.30,SE,135,0.0,0.0,75,-99.99,,,-99.99,WeatherSnoop3.0,2013-09-25 15:29:00,
2013-09-25 11:34:00,76.1,67.2,0.30,SE,135,0.0,0.0,74,-99.99,,,-99.99,WeatherSnoop3.0,2013-09-25 15:34:00,
2013-09-25 11:39:00,75.9,67.0,0.30,SE,135,3.1,6.9,74,-99.99,,,-99.99,WeatherSnoop3.0,2013-09-25 15:39:00,
2013-09-25 11:44:00,76.1,67.2,0.30,NW,315,0.0,0.0,74,-99.99,,,-99.99,WeatherSnoop3.0,2013-09-25 15:44:00,
2013-09-25 11:49:00,76.3,67.8,0.30,East,90,0.0,0.0,75,-99.99,,,-99.99,WeatherSnoop3.0,2013-09-25 15:49:00,
2013-09-25 11:55:00,76.3,67.4,29.71,East,90,0.7,3.1,74,-99.99,,,-99.99,WeatherSnoop3.0,2013-09-25 15:55:00,
2013-09-25 12:00:00,76.6,68.5,29.72,SE,135,0.0,0.0,76,-99.99,,,-99.99,WeatherSnoop3.0,2013-09-25 16:00:00,
2013-09-25 12:05:00,76.1,68.0,29.73,North,0,0.7,5.4,76,-99.99,,,-99.99,WeatherSnoop3.0,2013-09-25 16:05:00,
2013-09-25 12:10:00,76.1,67.6,29.74,West,270,0.0,2.2,75,-99.99,,,-99.99,WeatherSnoop3.0,2013-09-25 16:10:00,
2013-09-25 12:15:00,76.3,67.8,29.74,West,270,0.0,0.0,75,-99.99,,,-99.99,WeatherSnoop3.0,2013-09-25 16:15:00,
2013-09-25 12:20:00,76.6,68.5,29.73,North,0,0.0,3.1,76,-99.99,,,-99.99,WeatherSnoop3.0,2013-09-25 16:20:00,
2013-09-25 12:25:00,76.8,68.3,29.73,North,0,0.0,0.0,75,-99.99,,,-99.99,WeatherSnoop3.0,2013-09-25 16:25:00,
2013-09-25 12:30:00,76.6,67.7,29.72,East,90,0.0,1.6,74,-99.99,,,-99.99,WeatherSnoop3.0,2013-09-25 16:30:00,
2013-09-25 12:35:00,76.8,68.3,29.72,South,180,0.0,1.6,75,-99.99,,,-99.99,WeatherSnoop3.0,2013-09-25 16:35:00,
2013-09-25 12:40:00,77.4,68.0,29.71,South,180,0.0,1.6,73,-99.99,,,-99.99,WeatherSnoop3.0,2013-09-25 16:40:00,
2013-09-25 12:45:00,77.9,68.5,29.72,West,270,0.0,0.7,73,-99.99,,,-99.99,WeatherSnoop3.0,2013-09-25 16:45:00,
2013-09-25 12:50:00,79.7,69.4,29.73,South,180,0.0,0.7,71,-99.99,,,-99.99,WeatherSnoop3.0,2013-09-25 16:50:00,
2013-09-25 12:55:00,79.2,68.1,29.73,West,270,0.7,5.4,69,-99.99,,,-99.99,WeatherSnoop3.0,2013-09-25 16:55:00,
2013-09-25 13:00:00,79.2,68.1,29.74,South,180,0.7,3.1,69,-99.99,,,-99.99,WeatherSnoop3.0,2013-09-25 17:00:00,
2013-09-25 13:05:00,78.6,67.6,29.75,North,0,0.0,0.7,69,-99.99,,,-99.99,WeatherSnoop3.0,2013-09-25 17:05:00,
2013-09-25 13:10:00,79.0,67.5,29.76,West,270,0.7,4.5,68,-99.99,,,-99.99,WeatherSnoop3.0,2013-09-25 17:10:00,
2013-09-25 13:15:00,78.3,67.2,29.77,South,180,0.7,3.1,69,-99.99,,,-99.99,WeatherSnoop3.0,2013-09-25 17:15:00,
2013-09-25 13:20:00,78.1,67.5,29.77,North,0,0.7,3.8,70,-99.99,,,-99.99,WeatherSnoop3.0,2013-09-25 17:20:00,
2013-09-25 13:25:00,78.3,67.7,29.77,NW,315,0.0,0.0,70,-99.99,,,-99.99,WeatherSnoop3.0,2013-09-25 17:25:00,
2013-09-25 13:30:00,78.6,68.4,29.77,East,90,0.7,3.8,71,-99.99,,,-99.99,WeatherSnoop3.0,2013-09-25 17:30:00,
2013-09-25 13:35:00,79.5,68.9,29.77,East,90,0.0,0.0,70,-99.99,,,-99.99,WeatherSnoop3.0,2013-09-25 17:35:00,
2013-09-25 13:41:00,79.7,68.6,29.76,West,270,0.0,0.7,69,-99.99,,,-99.99,WeatherSnoop3.0,2013-09-25 17:41:00,
2013-09-25 13:46:00,79.0,67.1,29.76,West,270,0.0,0.0,67,-99.99,,,-99.99,WeatherSnoop3.0,2013-09-25 17:46:00,
2013-09-25 13:51:00,78.8,66.9,29.75,West,270,0.0,0.0,67,-99.99,,,-99.99,WeatherSnoop3.0,2013-09-25 17:51:00,
2013-09-25 13:56:00,78.6,68.0,29.74,South,180,0.7,3.1,70,-99.99,,,-99.99,WeatherSnoop3.0,2013-09-25 17:56:00,
2013-09-25 14:01:00,78.6,68.0,29.73,South,180,0.0,0.0,70,-99.99,,,-99.99,WeatherSnoop3.0,2013-09-25 18:01:00,
2013-09-25 14:06:00,78.8,67.7,29.73,South,180,0.0,0.0,69,-99.99,,,-99.99,WeatherSnoop3.0,2013-09-25 18:06:00,
2013-09-25 14:11:00,79.3,67.8,29.72,West,270,0.0,0.0,68,-99.99,,,-99.99,WeatherSnoop3.0,2013-09-25 18:11:00,
2013-09-25 14:16:00,79.0,67.5,29.72,North,0,0.0,0.0,68,-99.99,,,-99.99,WeatherSnoop3.0,2013-09-25 18:16:00,
2013-09-25 14:21:00,78.4,67.4,29.72,NW,315,0.0,0.7,69,-99.99,,,-99.99,WeatherSnoop3.0,2013-09-25 18:21:00,
2013-09-25 14:26:00,77.7,66.7,29.72,West,270,0.0,0.7,69,-99.99,,,-99.99,WeatherSnoop3.0,2013-09-25 18:26:00,
2013-09-25 14:31:00,77.7,67.1,29.73,West,270,0.0,0.7,70,-99.99,,,-99.99,WeatherSnoop3.0,2013-09-25 18:31:00,
2013-09-25 14:36:00,77.5,67.0,29.74,West,270,0.0,0.0,70,-99.99,,,-99.99,WeatherSnoop3.0,2013-09-25 18:36:00,
2013-09-25 14:41:00,77.7,67.5,29.74,South,180,0.0,0.0,71,-99.99,,,-99.99,WeatherSnoop3.0,2013-09-25 18:41:00,
2013-09-25 14:46:00,77.9,68.1,29.75,South,180,0.0,0.0,72,-99.99,,,-99.99,WeatherSnoop3.0,2013-09-25 18:46:00,
2013-09-25 14:51:00,78.3,68.1,29.75,SE,135,0.0,0.0,71,-99.99,,,-99.99,WeatherSnoop3.0,2013-09-25 18:51:00,
2013-09-25 14:56:00,78.6,68.4,29.76,West,270,0.0,0.0,71,-99.99,,,-99.99,WeatherSnoop3.0,2013-09-25 18:56:00,
2013-09-25 15:01:00,79.0,68.3,29.77,West,270,0.0,0.0,70,-99.99,,,-99.99,WeatherSnoop3.0,2013-09-25 19:01:00,
2013-09-25 15:06:00,78.6,68.0,29.77,West,270,0.0,0.7,70,-99.99,,,-99.99,WeatherSnoop3.0,2013-09-25 19:06:00,
2013-09-25 15:11:00,78.3,67.7,29.77,West,270,0.0,0.0,70,-99.99,,,-99.99,WeatherSnoop3.0,2013-09-25 19:11:00,
2013-09-25 15:16:00,78.3,68.1,29.77,West,270,0.0,0.0,71,-99.99,,,-99.99,WeatherSnoop3.0,2013-09-25 19:16:00,
2013-09-25 15:21:00,77.9,67.3,29.76,East,90,0.0,0.0,70,-99.99,,,-99.99,WeatherSnoop3.0,2013-09-25 19:21:00,
2013-09-25 15:26:00,78.4,68.6,29.76,West,270,0.0,0.0,72,-99.99,,,-99.99,WeatherSnoop3.0,2013-09-25 19:26:00,
2013-09-25 15:31:00,78.3,68.5,29.74,West,270,0.0,0.0,72,-99.99,,,-99.99,WeatherSnoop3.0,2013-09-25 19:31:00,
2013-09-25 15:36:00,79.0,68.3,29.75,NW,315,0.0,0.7,70,-99.99,,,-99.99,WeatherSnoop3.0,2013-09-25 19:36:00,
2013-09-25 15:41:00,79.0,67.9,29.77,NW,315,0.0,0.0,69,-99.99,,,-99.99,WeatherSnoop3.0,2013-09-25 19:41:00,
2013-09-25 15:46:00,79.5,68.4,29.78,NW,315,0.0,0.0,69,-99.99,,,-99.99,WeatherSnoop3.0,2013-09-25 19:46:00,
2013-09-25 15:51:00,79.7,67.8,29.79,North,0,0.0,0.0,67,-99.99,,,-99.99,WeatherSnoop3.0,2013-09-25 19:51:00,
2013-09-25 15:56:00,79.9,67.9,29.80,North,0,0.0,0.0,67,-99.99,,,-99.99,WeatherSnoop3.0,2013-09-25 19:56:00,
2013-09-25 16:01:00,79.9,67.9,29.81,North,0,0.0,0.0,67,-99.99,,,-99.99,WeatherSnoop3.0,2013-09-25 20:01:00,
2013-09-25 16:06:00,79.9,67.5,29.82,NW,315,1.6,4.5,66,-99.99,,,-99.99,WeatherSnoop3.0,2013-09-25 20:06:00,
2013-09-25 16:11:00,79.3,66.5,29.83,South,180,0.0,0.0,65,-99.99,,,-99.99,WeatherSnoop3.0,2013-09-25 20:11:00,
2013-09-25 16:16:00,79.0,67.1,29.84,West,270,0.0,0.0,67,-99.99,,,-99.99,WeatherSnoop3.0,2013-09-25 20:16:00,
2013-09-25 16:21:00,78.4,66.6,29.84,West,270,0.0,0.0,67,-99.99,,,-99.99,WeatherSnoop3.0,2013-09-25 20:21:00,
2013-09-25 16:26:00,78.6,67.2,29.84,NW,315,0.0,0.0,68,-99.99,,,-99.99,WeatherSnoop3.0,2013-09-25 20:26:00,
2013-09-25 16:31:00,78.4,66.1,29.84,South,180,0.0,0.0,66,-99.99,,,-99.99,WeatherSnoop3.0,2013-09-25 20:31:00,
2013-09-25 16:36:00,79.0,66.6,29.85,West,270,0.7,3.1,66,-99.99,,,-99.99,WeatherSnoop3.0,2013-09-25 20:36:00,
2013-09-25 16:41:00,79.2,66.8,29.85,West,270,0.0,0.0,66,-99.99,,,-99.99,WeatherSnoop3.0,2013-09-25 20:41:00,
2013-09-25 16:46:00,79.7,68.2,29.85,West,270,0.0,0.0,68,-99.99,,,-99.99,WeatherSnoop3.0,2013-09-25 20:46:00,
2013-09-25 16:51:00,79.7,67.8,29.86,West,270,0.0,3.1,67,-99.99,,,-99.99,WeatherSnoop3.0,2013-09-25 20:51:00,
2013-09-25 16:56:00,79.5,67.1,29.87,West,270,0.0,0.0,66,-99.99,,,-99.99,WeatherSnoop3.0,2013-09-25 20:56:00,
2013-09-25 17:01:00,79.5,67.1,29.87,North,0,0.0,2.2,66,-99.99,,,-99.99,WeatherSnoop3.0,2013-09-25 21:01:00,
2013-09-25 17:06:00,79.2,66.8,29.87,NE,45,0.0,0.0,66,-99.99,,,-99.99,WeatherSnoop3.0,2013-09-25 21:06:00,
2013-09-25 17:11:00,79.0,66.6,29.88,North,0,0.0,0.0,66,-99.99,,,-99.99,WeatherSnoop3.0,2013-09-25 21:11:00,
2013-09-25 17:16:00,79.2,67.2,29.88,NE,45,0.0,0.0,67,-99.99,,,-99.99,WeatherSnoop3.0,2013-09-25 21:16:00,
2013-09-25 17:21:00,79.0,67.1,29.89,NW,315,0.0,0.7,67,-99.99,,,-99.99,WeatherSnoop3.0,2013-09-25 21:21:00,
2013-09-25 17:26:00,78.8,66.9,29.89,West,270,0.0,0.0,67,-99.99,,,-99.99,WeatherSnoop3.0,2013-09-25 21:26:00,
2013-09-25 17:31:00,78.6,67.2,29.89,South,180,0.0,0.0,68,-99.99,,,-99.99,WeatherSnoop3.0,2013-09-25 21:31:00,
2013-09-25 17:36:00,78.3,67.2,29.90,South,180,0.0,0.0,69,-99.99,,,-99.99,WeatherSnoop3.0,2013-09-25 21:36:00,
2013-09-25 17:41:00,78.3,67.7,29.90,South,180,0.0,0.0,70,-99.99,,,-99.99,WeatherSnoop3.0,2013-09-25 21:41:00,
2013-09-25 17:46:00,77.9,67.3,29.90,NW,315,0.0,0.0,70,-99.99,,,-99.99,WeatherSnoop3.0,2013-09-25 21:46:00,
2013-09-25 17:51:00,77.4,67.2,29.91,North,0,0.0,0.7,71,-99.99,,,-99.99,WeatherSnoop3.0,2013-09-25 21:51:00,
2013-09-25 17:56:00,77.2,67.8,29.92,West,270,0.0,0.0,73,-99.99,,,-99.99,WeatherSnoop3.0,2013-09-25 21:56:00,
2013-09-25 18:01:00,77.2,67.8,29.92,North,0,0.0,0.0,73,-99.99,,,-99.99,WeatherSnoop3.0,2013-09-25 22:01:00,
2013-09-25 18:06:00,77.0,68.1,29.93,North,0,0.0,0.7,74,-99.99,,,-99.99,WeatherSnoop3.0,2013-09-25 22:06:00,
2013-09-25 18:11:00,77.0,68.1,29.93,South,180,0.0,0.0,74,-99.99,,,-99.99,WeatherSnoop3.0,2013-09-25 22:11:00,
2013-09-25 18:16:00,77.0,68.1,29.94,North,0,0.0,0.0,74,-99.99,,,-99.99,WeatherSnoop3.0,2013-09-25 22:16:00,
2013-09-25 18:21:00,76.6,68.1,29.95,NW,315,0.0,0.0,75,-99.99,,,-99.99,WeatherSnoop3.0,2013-09-25 22:21:00,
2013-09-25 18:26:00,76.6,68.5,29.95,North,0,0.0,0.7,76,-99.99,,,-99.99,WeatherSnoop3.0,2013-09-25 22:26:00,
2013-09-25 18:31:00,76.1,68.0,29.95,West,270,0.0,0.0,76,-99.99,,,-99.99,WeatherSnoop3.0,2013-09-25 22:31:00,
2013-09-25 18:36:00,75.9,68.2,29.96,NW,315,0.0,0.0,77,-99.99,,,-99.99,WeatherSnoop3.0,2013-09-25 22:36:00,
2013-09-25 18:41:00,75.7,68.0,29.96,NW,315,0.0,0.0,77,-99.99,,,-99.99,WeatherSnoop3.0,2013-09-25 22:41:00,
2013-09-25 18:46:00,75.6,68.2,29.96,West,270,0.0,0.0,78,-99.99,,,-99.99,WeatherSnoop3.0,2013-09-25 22:46:00,
2013-09-25 18:51:00,75.6,68.2,29.97,West,270,0.0,0.0,78,-99.99,,,-99.99,WeatherSnoop3.0,2013-09-25 22:51:00,
2013-09-25 18:56:00,75.2,67.9,29.97,North,0,0.0,0.7,78,-99.99,,,-99.99,WeatherSnoop3.0,2013-09-25 22:56:00,
2013-09-25 19:01:00,75.4,68.0,29.98,East,90,0.7,3.8,78,-99.99,,,-99.99,WeatherSnoop3.0,2013-09-25 23:01:00,
2013-09-25 19:06:00,74.8,67.9,29.98,West,270,0.0,0.0,79,-99.99,,,-99.99,WeatherSnoop3.0,2013-09-25 23:06:00,
2013-09-25 19:11:00,74.7,68.1,29.99,South,180,0.0,0.7,80,-99.99,,,-99.99,WeatherSnoop3.0,2013-09-25 23:11:00,
2013-09-25 19:16:00,74.7,68.1,30.00,South,180,0.0,0.0,80,-99.99,,,-99.99,WeatherSnoop3.0,2013-09-25 23:16:00,
2013-09-25 19:21:00,74.5,67.9,30.00,South,180,0.0,0.0,80,-99.99,,,-99.99,WeatherSnoop3.0,2013-09-25 23:21:00,
2013-09-25 19:26:00,74.3,68.1,30.00,South,180,0.0,0.0,81,-99.99,,,-99.99,WeatherSnoop3.0,2013-09-25 23:26:00,
2013-09-25 19:31:00,74.3,68.1,30.01,South,180,0.0,0.0,81,-99.99,,,-99.99,WeatherSnoop3.0,2013-09-25 23:31:00,
2013-09-25 19:36:00,74.1,67.9,30.01,NW,315,0.0,0.0,81,-99.99,,,-99.99,WeatherSnoop3.0,2013-09-25 23:36:00,
2013-09-25 19:41:00,73.9,67.7,30.01,West,270,0.0,0.7,81,-99.99,,,-99.99,WeatherSnoop3.0,2013-09-25 23:41:00,
2013-09-25 19:46:00,73.9,67.7,30.01,West,270,0.0,0.0,81,-99.99,,,-99.99,WeatherSnoop3.0,2013-09-25 23:46:00,
2013-09-25 19:51:00,73.8,67.6,30.02,West,270,0.0,0.0,81,-99.99,,,-99.99,WeatherSnoop3.0,2013-09-25 23:51:00,
2013-09-25 19:56:00,73.8,67.6,30.02,West,270,0.0,0.0,81,-99.99,,,-99.99,WeatherSnoop3.0,2013-09-25 23:56:00,
2013-09-25 20:01:00,73.6,67.7,30.02,West,270,0.0,1.6,82,-99.99,,,-99.99,WeatherSnoop3.0,2013-09-26 00:01:00,
2013-09-25 20:06:00,73.6,67.7,30.02,North,0,0.0,1.6,82,-99.99,,,-99.99,WeatherSnoop3.0,2013-09-26 00:06:00,
2013-09-25 20:11:00,73.4,67.6,30.03,North,0,0.0,0.7,82,-99.99,,,-99.99,WeatherSnoop3.0,2013-09-26 00:11:00,
2013-09-25 20:16:00,73.4,67.6,30.03,North,0,0.0,0.0,82,-99.99,,,-99.99,WeatherSnoop3.0,2013-09-26 00:16:00,
2013-09-25 20:21:00,73.2,67.4,30.02,North,0,0.7,3.1,82,-99.99,,,-99.99,WeatherSnoop3.0,2013-09-26 00:21:00,
2013-09-25 20:26:00,73.0,67.2,30.03,South,180,0.0,0.0,82,-99.99,,,-99.99,WeatherSnoop3.0,2013-09-26 00:26:00,
2013-09-25 20:31:00,72.9,67.0,30.03,West,270,0.0,0.0,82,-99.99,,,-99.99,WeatherSnoop3.0,2013-09-26 00:31:00,
2013-09-25 20:36:00,72.9,67.0,30.03,North,0,0.0,0.0,82,-99.99,,,-99.99,WeatherSnoop3.0,2013-09-26 00:36:00,
2013-09-25 20:41:00,72.9,67.0,30.03,South,180,0.0,0.0,82,-99.99,,,-99.99,WeatherSnoop3.0,2013-09-26 00:41:00,
2013-09-25 20:46:00,72.9,67.0,30.03,West,270,0.0,0.0,82,-99.99,,,-99.99,WeatherSnoop3.0,2013-09-26 00:46:00,
2013-09-25 20:51:00,72.7,66.9,30.03,East,90,0.0,0.0,82,-99.99,,,-99.99,WeatherSnoop3.0,2013-09-26 00:51:00,
2013-09-25 20:56:00,72.5,66.7,30.04,West,270,0.0,0.0,82,-99.99,,,-99.99,WeatherSnoop3.0,2013-09-26 00:56:00,
2013-09-25 21:01:00,72.5,66.7,30.05,West,270,0.0,0.0,82,-99.99,,,-99.99,WeatherSnoop3.0,2013-09-26 01:01:00,
2013-09-25 21:06:00,72.3,66.5,30.05,West,270,0.0,0.0,82,-99.99,,,-99.99,WeatherSnoop3.0,2013-09-26 01:06:00,
2013-09-25 21:11:00,72.3,66.5,30.05,West,270,0.0,0.0,82,-99.99,,,-99.99,WeatherSnoop3.0,2013-09-26 01:11:00,
2013-09-25 21:16:00,72.1,66.3,30.06,North,0,0.0,0.0,82,-99.99,,,-99.99,WeatherSnoop3.0,2013-09-26 01:16:00,
2013-09-25 21:21:00,72.0,66.2,30.06,West,270,0.0,0.0,82,-99.99,,,-99.99,WeatherSnoop3.0,2013-09-26 01:21:00,
2013-09-25 21:26:00,71.8,66.0,30.06,North,0,0.0,0.0,82,-99.99,,,-99.99,WeatherSnoop3.0,2013-09-26 01:26:00,
2013-09-25 21:31:00,71.6,65.8,30.06,North,0,0.0,0.0,82,-99.99,,,-99.99,WeatherSnoop3.0,2013-09-26 01:31:00,
2013-09-25 21:36:00,71.6,65.8,30.07,North,0,0.0,0.0,82,-99.99,,,-99.99,WeatherSnoop3.0,2013-09-26 01:36:00,
2013-09-25 21:41:00,71.6,66.2,30.07,West,270,0.0,0.0,83,-99.99,,,-99.99,WeatherSnoop3.0,2013-09-26 01:41:00,
2013-09-25 21:46:00,71.4,66.3,30.07,West,270,0.0,0.0,84,-99.99,,,-99.99,WeatherSnoop3.0,2013-09-26 01:46:00,
2013-09-25 21:51:00,71.2,66.1,30.07,NW,315,0.0,0.0,84,-99.99,,,-99.99,WeatherSnoop3.0,2013-09-26 01:51:00,
2013-09-25 21:56:00,71.2,66.1,30.08,NW,315,0.0,0.0,84,-99.99,,,-99.99,WeatherSnoop3.0,2013-09-26 01:56:00,
2013-09-25 22:01:00,71.2,66.1,30.08,North,0,0.0,0.0,84,-99.99,,,-99.99,WeatherSnoop3.0,2013-09-26 02:01:00,
2013-09-25 22:06:00,71.2,66.1,30.08,North,0,0.0,0.0,84,-99.99,,,-99.99,WeatherSnoop3.0,2013-09-26 02:06:00,
2013-09-25 22:11:00,71.2,66.5,30.09,West,270,0.0,0.0,85,-99.99,,,-99.99,WeatherSnoop3.0,2013-09-26 02:11:00,
2013-09-25 22:16:00,71.1,66.3,30.09,NW,315,0.0,0.0,85,-99.99,,,-99.99,WeatherSnoop3.0,2013-09-26 02:16:00,
2013-09-25 22:21:00,70.9,66.1,30.08,NW,315,0.0,0.0,85,-99.99,,,-99.99,WeatherSnoop3.0,2013-09-26 02:21:00,
2013-09-25 22:26:00,70.7,66.0,30.07,North,0,0.0,0.0,85,-99.99,,,-99.99,WeatherSnoop3.0,2013-09-26 02:26:00,
2013-09-25 22:31:00,70.5,65.8,30.05,North,0,0.0,0.0,85,-99.99,,,-99.99,WeatherSnoop3.0,2013-09-26 02:31:00,
2013-09-25 22:36:00,70.2,65.4,30.04,West,270,0.0,0.0,85,-99.99,,,-99.99,WeatherSnoop3.0,2013-09-26 02:36:00,
2013-09-25 22:41:00,70.0,65.3,30.04,NW,315,0.0,0.0,85,-99.99,,,-99.99,WeatherSnoop3.0,2013-09-26 02:41:00,
2013-09-25 22:46:00,69.8,65.4,30.03,North,0,0.0,0.0,86,-99.99,,,-99.99,WeatherSnoop3.0,2013-09-26 02:46:00,
2013-09-25 22:51:00,69.8,65.4,30.02,North,0,0.0,0.0,86,-99.99,,,-99.99,WeatherSnoop3.0,2013-09-26 02:51:00,
2013-09-25 22:56:00,69.8,65.4,30.01,North,0,0.0,0.0,86,-99.99,,,-99.99,WeatherSnoop3.0,2013-09-26 02:56:00,
2013-09-25 23:01:00,69.8,65.7,30.00,West,270,0.0,0.0,87,-99.99,,,-99.99,WeatherSnoop3.0,2013-09-26 03:01:00,
2013-09-25 23:06:00,69.8,65.7,29.98,NE,45,0.0,0.7,87,-99.99,,,-99.99,WeatherSnoop3.0,2013-09-26 03:06:00,
2013-09-25 23:11:00,69.6,65.9,29.97,East,90,1.6,6.9,88,-99.99,,,-99.99,WeatherSnoop3.0,2013-09-26 03:11:00,
2013-09-25 23:16:00,69.6,65.9,29.96,West,270,0.0,0.0,88,-99.99,,,-99.99,WeatherSnoop3.0,2013-09-26 03:16:00,
2013-09-25 23:21:00,69.6,65.9,29.95,East,90,1.6,3.1,88,-99.99,,,-99.99,WeatherSnoop3.0,2013-09-26 03:21:00,
2013-09-25 23:26:00,69.6,66.2,29.96,East,90,0.0,0.0,89,-99.99,,,-99.99,WeatherSnoop3.0,2013-09-26 03:26:00,
2013-09-25 23:31:00,69.6,66.2,29.96,NE,45,0.0,0.0,89,-99.99,,,-99.99,WeatherSnoop3.0,2013-09-26 03:31:00,
2013-09-25 23:36:00,69.6,66.2,29.97,East,90,0.0,0.0,89,-99.99,,,-99.99,WeatherSnoop3.0,2013-09-26 03:36:00,
2013-09-25 23:41:00,69.6,66.2,29.98,East,90,0.0,1.6,89,-99.99,,,-99.99,WeatherSnoop3.0,2013-09-26 03:41:00,
2013-09-25 23:46:00,69.8,66.1,29.98,West,270,0.0,0.0,88,-99.99,,,-99.99,WeatherSnoop3.0,2013-09-26 03:46:00,
2013-09-25 23:51:00,70.0,66.3,29.99,North,0,0.7,5.4,88,-99.99,,,-99.99,WeatherSnoop3.0,2013-09-26 03:51:00,
2013-09-25 23:56:00,70.0,66.3,30.00,North,0,0.0,0.0,88,-99.99,,,-99.99,WeatherSnoop3.0,2013-09-26 03:56:00,